Regional Weather Roundup
Issued by NWS

Home | Current Version | Previous Version | Graphics & Text | Print | Product List | Glossary On
Versions: 1 2 3 4 5 6 7 8 9 10 11 12 13 14 15 16 17 18 19 20 21 22 23 24 25 26 27 28 29 30 31 32 33 34 35 36 37 38 39 40 41 42 43 44 45 46 47 48 49 50
000
ASUS43 KMKX 261311
RWRWI

WISCONSIN REGIONAL WEATHER ROUNDUP
NATIONAL WEATHER SERVICE MILWAUKEE/SULLIVAN WI
800 AM CDT MON JUN 26 2017

NOTE: "FAIR" INDICATES FEW OR NO CLOUDS BELOW 12,000 FEET WITH NO
SIGNIFICANT WEATHER AND/OR OBSTRUCTIONS TO VISIBILITY.

WIZ001-002-006>008-014>016-023>028-261400-
NORTHWEST WISCONSIN

CITY           SKY/WX    TMP DP  RH WIND       PRES   REMARKS
SUPERIOR ARPT  NOT AVBL
ASHLAND        CLOUDY    49  47  93 NW3       30.12R
HAYWARD        CLOUDY    48  45  89 CALM      30.13R
SIREN          SUNNY     50  45  82 W6        30.15S
CUMBERLAND     SUNNY     50  45  81 NW10      30.14S
RICE LAKE      SUNNY     51  46  82 W7        30.15S
CHETEK         SUNNY     52  46  81 W6        30.13F
LADYSMITH      CLOUDY    47  45  92 W7        30.13R
EAU CLAIRE     SUNNY     52  46  80 W5        30.14R
MENOMONIE      SUNNY     52  47  82 W6        30.15S
NEW RICHMOND   SUNNY     53  45  74 NW7       30.17R
OSCEOLA        SUNNY     53  47  79 NW7       30.20S
$$

WIZ003>005-009-010-017-018-261400-
NORTH CENTRAL WISCONSIN

CITY           SKY/WX    TMP DP  RH WIND       PRES   REMARKS
MANITOWISH WTR DRIZZLE   46  46 100 NW8       30.04S
ARBOR VITAE    CLOUDY    47  45  93 NW8       30.03S FOG
WOODRUFF       CLOUDY    47  45  93 NW8       30.03S FOG
RHINELANDER    CLOUDY    47  44  90 VRB6      30.04S
EAGLE RIVER    CLOUDY    46  45  97 NW12      30.02R
LAND O LAKES   DRIZZLE   47  45  94 NW7       30.03R
PHILLIPS       DRIZZLE   45  45  99 NW9       30.08S
TOMAHAWK       NOT AVBL
MEDFORD        LGT RAIN  46  43  88 NW10      30.09R
MERRILL        CLOUDY    48  44  84 NW10G21   30.07S
$$

WIZ029-030-035-036-043>047-261400-
CENTRAL WISCONSIN

CITY           SKY/WX    TMP DP  RH WIND       PRES   REMARKS
WAUSAU         CLOUDY    49  42  77 NW16      30.05S
MOSINEE        PTSUNNY   48  45  87 NW12G20   30.08S
MARSHFIELD     SUNNY     50  43  77 NW13G23   30.09S
STEVENS POINT  CLOUDY    48  44  86 W8        30.08S
WAUPACA        PTSUNNY   54  47  77 NW10G20   30.08R
WAUTOMA        SUNNY     53  45  74 NW13      30.09S
WISC RAPIDS    MOSUNNY   52  46  80 NW12      30.11R
CAMP DOUGLAS   MOSUNNY   54  46  76 NW12      30.12R
$$

WIZ011>013-019>022-031-037>040-048>050-261400-
NORTHEAST WISCONSIN

CITY           SKY/WX    TMP DP  RH WIND       PRES   REMARKS
ANTIGO         CLOUDY    48  43  82 NW10G20   30.03F
SHAWANO        MOSUNNY   54  47  76 W8        30.03S
OCONTO         CLOUDY    52  45  78 W9        30.01S
STURGEON BAY     N/A     53  46  77 W14G22      N/A
GREEN BAY      SUNNY     54  48  80 W15       30.04S
MANITOWOC      MOSUNNY   55  47  74 NW14      30.04S
APPLETON       PTSUNNY   52  45  76 W12G18    30.05R
CLINTONVILLE   CLOUDY    52  43  71 W10G18    30.05S
OSHKOSH        SUNNY     54  47  77 W13G21    30.06S
$$

WIZ032>034-041-042-053>061-261400-
SOUTHWEST WISCONSIN

CITY           SKY/WX    TMP DP  RH WIND       PRES   REMARKS
LA CROSSE      MOSUNNY   61  48  62 N9        30.14S
SPARTA         SUNNY     54  46  76 N7        30.14S
VIROQUA        SUNNY     54  49  83 NW10      30.14R
BOSCOBEL       SUNNY     58  49  72 W5        30.14S
PRAIRIE DU CHI SUNNY     57  46  66 NW9       30.14S
PLATTEVILLE    MOSUNNY   57  50  77 NW8       30.14S
$$

WIZ056-057-062-063-064-067-068-261400-
SOUTH CENTRAL WISCONSIN

CITY           SKY/WX    TMP DP  RH WIND       PRES   REMARKS
REEDSBURG      SUNNY     54  50  86 NW8       30.12R
BARABOO/DELLS  SUNNY     54  48  80 NW7       30.11S
LONE ROCK      SUNNY     56  50  80 W7        30.13S
MINERAL POINT  SUNNY     55  50  82 NW6       30.13S
MADISON        MOSUNNY   56  49  77 W6        30.10S
MIDDLETON      SUNNY     56  51  81 W8        30.11S
WATERTOWN      NOT AVBL
MONROE         PTSUNNY   55  45  67 W13       30.12S
JANESVILLE     MOSUNNY   57  50  77 W8        30.11S
$$

WIZ051-052-058>065-066-070>072-261400-
SOUTHEAST WISCONSIN

CITY           SKY/WX    TMP DP  RH WIND       PRES   REMARKS
MILWAUKEE      MOSUNNY   60  47  61 W10       30.09S
WAUKESHA       MOSUNNY   54  46  76 W10       30.11S
MILWAUKEE/TIMM SUNNY     57  43  58 W10G16    30.09S
RACINE         PTSUNNY   59  50  72 W9        30.11S
KENOSHA        SUNNY     61  49  64 W8        30.10S
FOND DU LAC    SUNNY     56  45  66 NW15      30.07S
SHEBOYGAN      MOSUNNY   56  51  84 W12       30.04F
WEST BEND      SUNNY     55  46  71 W14       30.07S
JUNEAU         SUNNY     55  46  71 W7        30.09F
$$

LSZ147-162-261400-
LAKE SUPERIOR

STATION/POSITION TIME  TEMP    WIND        PRES    WAVE
                       AIR SEA DIR/SP/G            HT/PER
                 (UTC) (F)     (DEG/KT/KT) (MB)    (FT/S)
W MID LAKE BUOY  1250   44 39  280/ 12/ 16 1018.1R   2/ 4
DEVILS ISLAND    1300   49     260/  8/  9 1019.6R
PORT WING        1120   49     100/  2/ 19 1020.0
SAXON HARBOR     1240   52     330/ 14/ 19 1018.6R
$$

LMZ867-665-643>646-261400-
LAKE MICHIGAN

STATION/POSITION TIME  TEMP    WIND        PRES    WAVE
                       AIR SEA DIR/SP/G            HT/PER
                 (UTC) (F)     (DEG/KT/KT) (MB)    (FT/S)
CHAMBERS ISLAND  1240   54     290/  5/ 12 1015.2R
S GREEN BAY BUOY 1300   53     280/ 14/ 19 1016.0
N MID LAKE BUOY  1250   54 56  250/ 12/ 16 1014.8S   2/ 4
NORTHPORT PIER   1240   54     280/  8/ 13 1014.9S
KEWAUNEE LAKESHO 1248   55     290/  9/ 13 1015.7F
SHEBOYGAN LAKESH 1300   55     260/ 13/ 16 1017.2F
PORT WASHINGTON  1230   59     260/  8/ 13 1019.0S
ATWATER BUOY     1239   58 56  270/ 12/ 14 1018.5S
MILWAUKEE LAKESH 1250   59     290/ 10/ 13   N/A
S MID LAKE BUOY  1250   59 61  310/ 16/ 19 1018.6S   3/ 4
KENOSHA   LAKESH 1300   61     270/  8/ 12 1019.0
$$

TC  - TEMPERATURE IN CELSIUS
VSB - VISIBILITY IN STATUTE MILES
WCI - WIND CHILL INDEX
HX  - HEAT INDEX





USA.gov is the U.S. government's official web portal to all federal, state and local government web resources and services.